Regional Weather Roundup
Issued by NWS

Home | Current Version | Previous Version | Text Only | Print | Product List | Glossary On
Versions: 1 2 3 4 5 6 7 8 9 10 11 12 13 14 15 16 17 18 19 20 21 22 23 24 25 26 27 28 29 30 31 32 33 34 35 36 37 38 39 40 41 42 43 44 45 46 47 48 49 50
000
ASUS43 KTOP 181808
RWRKS

WEATHER ROUNDUP FOR KANSAS
NATIONAL WEATHER SERVICE GOODLAND KS
100 PM CDT FRI APR 18 2014

NOTE:  "FAIR" INDICATES FEW OR NO CLOUDS BELOW 12,000 FEET WITH NO
SIGNIFICANT WEATHER AND/OR OBSTRUCTIONS TO VISIBILITY.

KSZ001>006-013>018-027>032-041>047-181900-
NORTHWEST KANSAS

CITY           SKY/WX    TMP DP  RH WIND       PRES   REMARKS
GOODLAND       MOSUNNY   64  38  38 S22G31    30.01F
6HR MIN TEMP:  33; 6HR MAX TEMP:  65;

HAYS           SUNNY     66  45  45 S25G32    30.14F
HILL CITY      SUNNY     66  43  43 S18G31    30.10F
6HR MIN TEMP:  36; 6HR MAX TEMP:  66;

RUSSELL        SUNNY     67  42  40 S23G32    30.14F
6HR MIN TEMP:  35; 6HR MAX TEMP:  68;

$$

KSZ061>065-074>080-084>089-181900-
SOUTHWEST KANSAS

CITY           SKY/WX    TMP DP  RH WIND       PRES   REMARKS
DODGE CITY     MOSUNNY   61  44  53 S22G36    30.16F
6HR MIN TEMP:  37; 6HR MAX TEMP:  62;

ELKHART          N/A    N/A N/A N/A MISG        N/A
GARDEN CITY    SUNNY     60  45  57 S26G36    30.12F
6HR MIN TEMP:  38; 6HR MAX TEMP:  60;

GREAT BEND     SUNNY     64  45  48 S22G28    30.16F
LIBERAL        SUNNY     63  45  51 S22       30.16F
PRATT          SUNNY     61  41  48 S20       30.20F
$$

KSZ066>073-081>083-090>101-181900-
SOUTHEAST KANSAS

CITY           SKY/WX    TMP DP  RH WIND       PRES   REMARKS
CHANUTE        SUNNY     65  42  43 VRB5      30.27F
6HR MIN TEMP:  34; 6HR MAX TEMP:  65;

COFFEYVILLE    SUNNY     67  42  40 VRB5      30.26F
6HR MIN TEMP:  34; 6HR MAX TEMP:  67;

HUTCHINSON     SUNNY     66  42  41 S16       30.21F
6HR MIN TEMP:  31; 6HR MAX TEMP:  66;

MEDICINE LODGE   N/A     62  43  49 S15G22    30.21F
NEWTON         SUNNY     64  43  45 S12       30.26F
PARSONS        SUNNY     68  42  38 CALM      30.27F
6HR MIN TEMP:  37; 6HR MAX TEMP:  68;

WICHITA INTL   MOSUNNY   65  44  46 SE13G20   30.23F
6HR MIN TEMP:  32; 6HR MAX TEMP:  65;

WICHITA JABRA  SUNNY     64  45  49 S10G17    30.23F
6HR MIN TEMP:  33; 6HR MAX TEMP:  64;

WICHITA MCCONL SUNNY     64  45  51 SE10      30.25F
WINFIELD       SUNNY     66  45  46 SE8       30.25F
6HR MIN TEMP:  33; 6HR MAX TEMP:  67;

$$

KSZ007>012-019>026-033>040-048>060-102>105-181900-
NORTHEAST KANSAS

CITY           SKY/WX    TMP DP  RH WIND       PRES   REMARKS
CONCORDIA      SUNNY     64  42  44 S14G23    30.18F
6HR MIN TEMP:  30; 6HR MAX TEMP:  64;

EMPORIA        SUNNY     63  41  44 SE13      30.26F
6HR MIN TEMP:  29; 6HR MAX TEMP:  63;

LAWRENCE       SUNNY     63  41  44 SE8       30.27F
6HR MIN TEMP:  28; 6HR MAX TEMP:  64;

MANHATTAN      SUNNY     65  40  39 S8        30.24F
6HR MIN TEMP:  29; 6HR MAX TEMP:  65;

OLATHE IND     SUNNY     62  40  44 SE10      30.28F
6HR MIN TEMP:  32; 6HR MAX TEMP:  62;

OLATHE EXE     SUNNY     61  41  47 VRB7      30.28F
6HR MIN TEMP:  35; 6HR MAX TEMP:  61;

SALINA         SUNNY     67  43  41 S13G28    30.21F
6HR MIN TEMP:  33; 6HR MAX TEMP:  67;

TOPEKA BILLARD SUNNY     63  41  44 S9        30.27F
6HR MIN TEMP:  31; 6HR MAX TEMP:  64;

TOPEKA FORBES  SUNNY     63  39  41 VRB7      30.26F
6HR MIN TEMP:  30; 6HR MAX TEMP:  63;

$$



USA.gov is the U.S. government's official web portal to all federal, state and local government web resources and services.